Weather History for Hutchinson, MN

Change the Weather History Date:

Sunday, October 6, 2013

  Actual Average Record
Temperature  
Mean Temperature 44 °F -  
Max Temperature 52 °F 63 °F 87 °F (2007)
Min Temperature 38 °F 39 °F 1 °F (2004)
Degree Days  
Heating Degree Days 20    
Moisture  
Dew Point 45 °F    
Average Humidity 97    
Maximum Humidity 100    
Minimum Humidity 89    
Precipitation  
Precipitation 0.14 in - - ()
Sea Level Pressure  
Sea Level Pressure 29.77 in    
Wind  
Wind Speed 4 mph (NW)    
Max Wind Speed 17 mph    
Max Gust Speed 25 mph    
Visibility 7 miles    
Events Rain    
Averages and records for this station are not official NWS values.
T = Trace of Precipitation, MM = Missing Value Source: NWS Daily Summary

Daily Weather History Graph

Daily Weather History Graph

Search for Another Location

Airport:

Trip Planner

Search our weather history database for the weather conditions in past years. The results will help you decide how hot, cold, wet, or windy it might be!

Date:

Astronomy

Oct. 06, 2013 Rise Set
Actual Time 7:22 AM CDT 6:48 PM CDT
Civil Twilight 6:52 AM CDT 7:17 PM CDT
Nautical Twilight 6:18 AM CDT 7:51 PM CDT
Astronomical Twilight 5:44 AM CDT 8:25 PM CDT
Moon 9:13 AM CDT (10/6) 7:41 PM CDT (10/6)
Length of Visible Light 12h 24m
Length of Day
11h 26m
Waxing Crescent, 3% of the Moon is Illuminated
Oct 6
Waxing Crescent
Oct 11
First Quarter
Oct 18
Full
Oct 26
Last Quarter
Nov 3
New

Hourly Weather History & Observations

Time (CDT) Temp. Windchill Dew Point Humidity Pressure Visibility Wind Dir Wind Speed Gust Speed Precip Events Conditions
12:13 AM 39.2 °F - 39.2 °F 100% 29.75 in 10.0 mi Calm Calm - N/A   Clear
12:34 AM 38.7 °F - 38.8 °F 100% 29.75 in 5.0 mi Calm Calm - N/A   Clear
12:53 AM 38.5 °F - 38.7 °F 100% 29.75 in 4.0 mi Calm Calm - N/A   Clear
1:14 AM 40.3 °F - 40.5 °F 100% 29.74 in 5.0 mi Calm Calm - N/A   Clear
1:33 AM 40.3 °F - 40.5 °F 100% 29.74 in 7.0 mi Calm Calm - N/A   Clear
1:54 AM 40.3 °F - 40.5 °F 100% 29.74 in 10.0 mi Calm Calm - N/A   Clear
2:13 AM 40.1 °F - 40.3 °F 100% 29.73 in 10.0 mi Calm Calm - N/A   Clear
2:34 AM 40.5 °F - 40.6 °F 100% 29.73 in 10.0 mi Calm Calm - N/A   Clear
2:53 AM 39.4 °F - 39.6 °F 100% 29.73 in 7.0 mi Calm Calm - N/A   Clear
3:13 AM 38.7 °F - 38.8 °F 100% 29.72 in 2.5 mi Calm Calm - N/A   Clear
3:33 AM 38.3 °F - 38.3 °F 100% 29.72 in 1.8 mi Calm Calm - N/A   Mostly Cloudy
3:54 AM 40.5 °F 38.4 °F 40.6 °F 100% 29.72 in 10.0 mi West 3.5 mph - N/A   Overcast
4:13 AM 41.9 °F - 42.1 °F 100% 29.72 in 10.0 mi Calm Calm - N/A   Overcast
4:33 AM 42.8 °F 40.1 °F 42.8 °F 100% 29.71 in 10.0 mi NW 4.6 mph - N/A   Overcast
4:54 AM 43.7 °F 41.1 °F 43.9 °F 100% 29.71 in 10.0 mi West 4.6 mph - N/A   Overcast
5:13 AM 43.7 °F - 43.7 °F 100% 29.71 in 10.0 mi Calm Calm - N/A   Overcast
5:33 AM 43.7 °F 42.1 °F 43.7 °F 100% 29.71 in 10.0 mi WSW 3.5 mph - N/A   Overcast
5:54 AM 43.9 °F - 43.7 °F 99% 29.71 in 10.0 mi Calm Calm - N/A   Overcast
6:13 AM 43.7 °F - 43.3 °F 99% 29.72 in 10.0 mi Calm Calm - N/A   Overcast
6:33 AM 43.9 °F - 43.7 °F 99% 29.72 in 7.0 mi Calm Calm - N/A Rain Rain
6:53 AM 44.4 °F - 44.1 °F 99% 29.72 in 10.0 mi Calm Calm - 0.01 in   Drizzle
7:13 AM 44.6 °F - 44.6 °F 100% 29.71 in 5.0 mi Calm Calm - 0.01 in Rain Light Rain
7:34 AM 44.8 °F - 44.8 °F 100% 29.71 in 5.0 mi Calm Calm - 0.02 in   Drizzle
7:54 AM 45.1 °F 43.7 °F 45.1 °F 100% 29.71 in 10.0 mi West 3.5 mph - 0.02 in   Overcast
8:13 AM 46.4 °F 45.2 °F 46.4 °F 100% 29.72 in 4.0 mi WNW 3.5 mph - N/A   Overcast
8:34 AM 47.3 °F - 47.5 °F 100% 29.72 in 1.5 mi WNW 4.6 mph - N/A Rain Rain
8:53 AM 48.4 °F - 48.4 °F 100% 29.72 in 2.0 mi NW 4.6 mph - N/A   Overcast
9:14 AM 49.5 °F - 49.3 °F 99% 29.72 in 4.0 mi North 8.1 mph - N/A   Overcast
9:34 AM 49.6 °F - 49.1 °F 98% 29.72 in 10.0 mi NNW 11.5 mph 16.1 mph N/A   Overcast
9:53 AM 50.4 °F - 49.3 °F 96% 29.73 in 10.0 mi NNW 10.4 mph 18.4 mph N/A   Overcast
10:14 AM 50.9 °F - 48.9 °F 93% 29.73 in 10.0 mi North 8.1 mph 16.1 mph N/A   Overcast
10:34 AM 50.2 °F - 49.1 °F 96% 29.74 in 1.8 mi North 9.2 mph - N/A   Overcast
10:53 AM 50.5 °F - 49.6 °F 97% 29.74 in 2.5 mi North 5.8 mph - N/A   Overcast
11:13 AM 51.4 °F - 50.0 °F 95% 29.74 in 10.0 mi NNW 5.8 mph - N/A   Overcast
11:33 AM 51.4 °F - 49.3 °F 92% 29.74 in 10.0 mi North 8.1 mph - N/A   Overcast
11:54 AM 51.1 °F - 49.1 °F 93% 29.74 in 2.0 mi North 5.8 mph - N/A Rain Light Rain
12:13 PM 50.9 °F - 50.0 °F 97% 29.75 in 1.8 mi NNW 12.7 mph - 0.01 in Rain Rain
12:33 PM 51.1 °F - 50.4 °F 97% 29.75 in 1.5 mi NNW 9.2 mph - 0.02 in   Light Drizzle
12:53 PM 51.1 °F - 50.4 °F 97% 29.75 in 1.8 mi NNW 11.5 mph 19.6 mph 0.02 in Rain Light Rain
1:13 PM 50.9 °F - 50.4 °F 98% 29.75 in 1.2 mi NNW 9.2 mph - 0.01 in Rain Light Rain
1:34 PM 50.9 °F - 50.0 °F 97% 29.75 in 1.8 mi NNW 9.2 mph 19.6 mph 0.02 in   Light Drizzle
1:53 PM 50.7 °F - 49.6 °F 96% 29.75 in 1.8 mi NNW 15.0 mph - 0.02 in Rain Light Rain
2:14 PM 50.4 °F - 49.6 °F 97% 29.75 in 1.8 mi NNW 15.0 mph 21.9 mph 0.01 in Rain Light Rain
2:33 PM 49.6 °F - 49.1 °F 98% 29.76 in 2.5 mi NNW 17.3 mph 25.3 mph 0.01 in Rain Light Rain
2:53 PM 49.6 °F - 48.9 °F 97% 29.76 in 2.5 mi NNW 13.8 mph 20.7 mph 0.01 in Rain Light Rain
3:13 PM 49.1 °F - 48.4 °F 97% 29.76 in 3.0 mi NNW 16.1 mph 21.9 mph N/A   Overcast
3:34 PM 50.0 °F - 48.4 °F 94% 29.77 in 10.0 mi NW 13.8 mph 18.4 mph N/A   Overcast
3:54 PM 49.3 °F - 47.1 °F 92% 29.78 in 10.0 mi NW 13.8 mph 18.4 mph N/A   Overcast
4:10 PM 49.1 °F - 47.3 °F 93% 29.79 in 10.0 mi NW 15.0 mph 18.4 mph N/A Rain Rain
4:33 PM 48.7 °F - 47.5 °F 95% 29.79 in 7.0 mi NNW 9.2 mph 17.3 mph 0.01 in Rain Light Rain
4:54 PM 49.1 °F - 48.4 °F 97% 29.80 in 4.0 mi NW 9.2 mph - 0.03 in Rain Rain
5:13 PM 49.1 °F - 48.2 °F 97% 29.81 in 5.0 mi NNW 9.2 mph - 0.01 in Rain Rain
5:33 PM 48.7 °F - 48.2 °F 98% 29.81 in 5.0 mi NNW 12.7 mph - 0.02 in Rain Light Rain
5:54 PM 50.0 °F - 48.9 °F 96% 29.82 in 10.0 mi NW 9.2 mph - 0.02 in   Overcast
6:13 PM 50.5 °F - 48.4 °F 92% 29.82 in 10.0 mi NNW 5.8 mph - N/A   Mostly Cloudy
6:34 PM 50.0 °F - 47.7 °F 92% 29.83 in 10.0 mi NW 4.6 mph - N/A   Scattered Clouds
6:53 PM 48.7 °F - 47.3 °F 95% 29.84 in 10.0 mi WNW 3.5 mph - N/A   Clear
7:13 PM 46.6 °F - 45.3 °F 95% 29.84 in 10.0 mi West 4.6 mph - N/A   Clear
7:33 PM 45.5 °F 42.5 °F 44.8 °F 97% 29.85 in 10.0 mi West 5.8 mph - N/A   Clear
7:53 PM 45.5 °F 43.2 °F 45.0 °F 98% 29.85 in 10.0 mi West 4.6 mph - N/A   Clear
8:14 PM 45.9 °F 44.6 °F 45.5 °F 99% 29.85 in 10.0 mi WNW 3.5 mph - N/A   Clear
8:33 PM 44.4 °F 41.2 °F 43.9 °F 98% 29.85 in 10.0 mi West 5.8 mph - N/A   Clear
8:53 PM 44.6 °F 41.4 °F 44.1 °F 98% 29.85 in 10.0 mi West 5.8 mph - N/A   Clear
9:14 PM 44.2 °F 41.0 °F 43.9 °F 99% 29.86 in 10.0 mi West 5.8 mph - N/A   Clear
9:33 PM 45.5 °F 42.5 °F 44.1 °F 95% 29.87 in 10.0 mi West 5.8 mph - 0.01 in   Clear
9:53 PM 45.5 °F 41.8 °F 43.7 °F 93% 29.87 in 10.0 mi West 6.9 mph - 0.01 in   Clear
10:13 PM 45.5 °F 42.5 °F 43.2 °F 92% 29.88 in 10.0 mi WNW 5.8 mph - N/A   Clear
10:34 PM 45.1 °F 41.4 °F 42.8 °F 91% 29.88 in 10.0 mi West 6.9 mph - N/A   Clear
10:53 PM 44.8 °F 41.6 °F 42.1 °F 90% 29.88 in 10.0 mi WNW 5.8 mph - N/A   Clear
11:13 PM 45.0 °F 41.8 °F 41.9 °F 89% 29.88 in 10.0 mi West 5.8 mph - N/A   Clear
11:33 PM 43.7 °F 40.3 °F 41.4 °F 91% 29.88 in 10.0 mi West 5.8 mph - N/A   Clear
11:54 PM 42.6 °F 39.0 °F 40.6 °F 93% 29.88 in 10.0 mi West 5.8 mph - N/A   Clear